Location: Glencliff
(36.1226°N, 86.7183°W)
Time: 13:06:05
(UTC+00:00)

RESURS DK-1 - Pass Details

Date: 25 August 2019
Orbit: 556 x 562 km, 69.9° (Epoch: 17 September)

Event Time Altitude Azimuth Distance (km) Brightness Sun altitude
Rises 09:08:45 0° 340° (NNW) 2,754 6.1 -23.6°
Reaches altitude 10° 09:10:59 10° 344° (NNW) 1,854 5.2 -23.2°
Maximum altitude 09:15:05 62° 66° (ENE) 633 2.8 -22.6°
Drops below altitude 10° 09:19:09 10° 147° (SSE) 1,837 5.0 -21.9°
Sets 09:21:21 0° 151° (SSE) 2,727 5.8 -21.5°
